Temp
54 55 55 55 55 55 55 56 56 56 56 56 57 57 57 57 57 48 44 46 44 40 43 47 46 41 42 41 36 39 40 39 38 36 36 37 32 36 37 47 47 44 43 43 50 47 45 62 63 62 63 65 68 70
54 55 55 55 55 55 55 55 55 56 56 56 57 57 57 57 56 55 43 46 48 43 42 47 49 51 48 47 38 38 37 40 40 35 37 36 36 40 36 37 52 42 49 46 49 48 54 57 53 58 67 67 67 70
54 54 54 55 55 55 55 55 55 56 56 56 56 57 57 56 56 54 43 44 44 41 42 41 40 50 53 52 52 38 42 47 43 43 40 38 33 37 36 39 44 50 52 49 53 55 54 57 56 57 60 67 69 69
54 54 54 54 54 55 55 55 55 55 56 56 56 56 56 56 56 55 44 45 45 43 36 39 51 47 54 54 51 50 50 52 48 43 38 37 36 42 40 43 43 49 51 48 50 53 55 57 55 56 65 70 70 70
54 54 54 54 54 54 55 55 55 56 56 56 56 56 56 56 55 51 47 48 49 42 36 39 45 48 49 49 52 53 50 48 43 38 37 36 42 42 45 45 43 50 46 46 46 51 52 53 56 59 61 63 65 67
54 54 54 54 54 54 55 55 55 55 55 56 56 55 55 55 54 46 40 47 50 48 40 34 41 43 47 51 49 48 51 50 42 41 41 44 46 41 40 41 48 50 51 52 51 56 55 55 57 58 59 61 65 63
54 54 54 54 54 54 55 55 55 55 55 55 55 55 54 54 50 43 41 47 49 47 39 36 33 43 50 47 46 47 51 51 48 42 42 43 45 46 43 42 48 51 51 54 57 57 55 55 53 58 59 62 63 63
53 54 54 54 54 54 54 54 54 54 54 55 55 54 54 53 51 46 48 51 50 43 41 34 34 37 47 43 44 51 49 50 47 45 45 44 44 45 42 46 49 50 51 53 54 56 56 56 55 56 58 60 58 59
53 53 53 54 54 54 54 54 54 54 54 54 54 54 50 48 44 46 53 51 48 43 36 35 32 33 47 46 47 46 47 41 47 43 44 44 43 41 45 47 48 50 50 52 54 54 54 53 53 55 57 57 57 56
53 53 53 53 53 54 54 54 54 54 54 54 50 48 43 48 55 52 45 41 40 39 37 32 39 35 43 45 43 43 45 41 39 42 45 39 39 47 49 49 49 50 52 54 52 50 53 53 54 54 54 55 56 56
53 53 53 53 53 53 54 54 54 54 54 49 44 45 48 55 49 46 41 37 36 33 34 35 38 37 46 41 41 45 42 41 35 40 38 36 37 44 49 50 50 51 52 53 54 54 55 55 56 57 57 57 58 58
53 53 53 53 53 53 53 53 54 49 47 47 47 49 50 47 44 40 39 40 38 37 39 39 42 42 45 48 44 44 39 41 36 44 38 34 41 46 48 50 51 52 53 54 55 55 56 57 57 57 57 58 59 60
52 52 52 52 53 53 53 54 54 53 51 48 45 45 45 43 37 32 33 36 38 45 46 44 44 46 47 47 43 42 41 38 45 35 32 37 43 47 49 50 53 54 54 54 55 56 58 58 60 58 57 60 60 60
52 52 52 52 52 53 55 54 54 52 49 45 45 39 41 41 42 40 43 44 49 47 47 48 47 46 47 43 46 42 42 43 36 32 37 45 48 50 51 53 53 55 56 59 59 59 59 58 58 60 59 59 58 59
52 52 52 52 56 55 55 54 53 50 49 46 47 40 43 47 50 52 52 50 53 50 47 47 48 48 45 45 46 44 40 34 36 38 43 47 49 51 52 55 56 56 56 58 60 59 60 60 61 59 61 61 60 59
52 51 52 55 55 54 53 53 54 52 51 50 49 44 47 48 49 52 52 52 59 59 53 50 46 44 42 43 41 38 36 35 40 45 47 49 50 52 52 55 57 59 57 59 61 60 59 58 57 57 58 58 59 61
51 47 54 55 54 52 54 52 54 56 54 50 46 49 46 46 45 50 54 54 60 56 49 48 43 40 45 41 39 43 40 44 47 48 50 51 50 50 53 55 59 56 55 59 61 61 59 61 63 60 58 59 58 60
47 51 55 54 52 51 52 55 55 54 50 49 45 46 47 47 50 53 56 57 52 49 51 47 49 42 40 38 40 44 46 47 49 49 50 51 52 52 54 55 55 58 55 55 59 60 59 58 56 56 58 56 61 60
50 51 53 52 51 47 50 56 54 51 50 47 47 48 51 49 54 56 56 56 57 54 49 46 44 40 41 44 44 47 48 47 47 49 51 53 53 54 56 58 58 58 57 55 55 54 55 52 54 55 56 55 53 56
53 53 54 54 54 50 52 52 55 52 48 47 47 47 50 50 53 55 54 55 52 48 47 43 43 45 44 44 45 46 46 49 46 45 49 54 57 56 55 56 56 58 56 54 55 52 55 56 57 53 53 54 54 51
54 56 57 55 52 51 52 50 50 50 49 47 49 48 46 49 50 50 51 53 50 47 43 43 43 48 50 53 53 54 53 52 52 51 46 49 54 55 54 54 56 55 53 52 50 51 51 50 51 54 52 50 50 52
53 57 54 57 55 54 51 53 51 50 49 47 47 48 45 43 44 45 48 47 44 44 44 46 48 47 49 48 48 51 50 52 51 53 52 52 50 50 50 51 51 49 50 49 50 50 50 50 52 53 53 50 50 50
54 54 52 56 53 45 48 53 51 50 47 46 48 48 45 43 45 47 41 42 44 47 48 47 47 48 47 48 49 49 50 51 50 51 51 51 50 50 49 49 50 48 48 49 51 50 49 49 51 51 51 51 50 47
54 51 50 49 49 43 54 53 55 51 48 46 44 42 45 45 49 44 40 40 46 47 46 47 47 46 46 46 46 45 45 49 49 50 50 48 46 45 47 47 49 49 47 46 48 48 49 48 47 49 49 49 49 49
43 47 46 40 50 50 50 50 49 48 46 47 44 42 42 48 42 39 39 40 43 44 46 47 47 45 43 42 43 45 46 47 45 44 47 47 44 45 44 44 45 46 46 45 45 45 45 47 47 47 48 47 46 47
39 51 48 52 51 52 51 48 48 47 48 47 45 46 48 46 41 36 38 41 43 49 47 47 45 44 43 43 41 41 41 44 47 43 42 46 46 43 40 40 40 44 45 43 43 44 44 45 46 46 45 45 43 45
43 47 48 52 52 52 51 51 52 49 48 45 46 46 48 42 41 40 43 46 47 53 55 52 49 47 45 45 43 43 44 47 43 40 42 43 45 44 41 39 38 40 43 47 45 45 44 43 43 43 42 42 43 43
48 47 47 50 50 53 50 50 49 46 46 49 48 44 44 45 40 45 47 54 56 54 54 51 49 50 47 45 45 43 42 43 45 43 43 43 43 44 44 44 46 44 46 44 45 45 43 43 42 43 42 41 40 42
48 50 50 48 53 53 52 50 48 49 49 48 45 43 44 47 49 49 51 52 53 53 49 46 46 47 47 48 45 43 42 40 39 36 36 34 35 38 42 43 42 43 43 43 45 44 45 43 42 42 42 40 40 40
52 52 50 54 53 50 51 53 51 52 51 50 49 47 48 48 51 53 52 51 49 47 47 47 46 45 43 42 40 40 40 40 39 37 34 33 35 38 40 40 41 41 41 41 42 42 43 43 42 41 41 39 38 37
58 57 56 55 53 54 56 57 56 54 53 50 50 47 46 48 53 52 52 50 50 49 48 46 45 45 44 42 41 38 36 39 41 41 40 38 38 39 40 40 41 41 41 41 41 41 41 40 39 38 39 39 39 38
58 55 54 54 51 56 56 54 53 56 55 50 48 49 48 45 47 47 52 52 49 47 48 46 44 43 44 44 45 43 43 41 41 41 40 40 39 40 40 40 40 41 42 41 42 41 41 40 39 39 38 39 38 38
59 60 59 56 53 54 54 53 52 50 49 48 49 49 52 48 45 48 51 51 49 47 46 46 47 46 46 46 45 44 44 43 43 42 43 42 40 39 36 38 40 42 41 41 40 40 40 40 38 39 38 38 38 38
MSLP
1024.01 1023.41 1022.79 1022.21 1021.51 1020.91 1020.39 1019.84 1019.28 1018.80 1018.26 1017.71 1017.18 1016.69 1016.24 1015.86 1015.53 1015.59 1015.39 1015.07 1015.39 1014.60 1013.25 1012.96 1012.71 1012.76 1012.56 1012.49 1012.11 1010.98 1010.56 1009.85 1009.46 1009.00 1008.08 1007.14 1006.43 1004.79 1002.69 1000.13 998.45 998.80 999.17 999.49 998.35 996.62 994.67 992.43 990.52 989.62 989.36 988.95 988.89 988.53
1023.75 1023.12 1022.46 1021.78 1021.25 1020.73 1020.11 1019.57 1019.03 1018.46 1017.91 1017.34 1016.86 1016.37 1015.90 1015.43 1015.02 1014.78 1015.08 1014.40 1014.36 1014.40 1012.64 1011.91 1011.38 1011.14 1011.05 1010.86 1011.56 1010.88 1010.50 1010.11 1009.90 1009.85 1008.98 1008.07 1006.95 1004.88 1003.05 1000.62 998.40 999.04 998.50 998.21 998.07 997.48 997.03 995.91 995.08 993.11 990.44 989.19 989.11 988.96
1023.49 1022.86 1022.00 1021.43 1020.85 1020.38 1019.81 1019.12 1018.53 1017.92 1017.34 1016.73 1016.24 1015.76 1015.28 1014.90 1014.58 1014.49 1014.51 1014.16 1014.07 1013.26 1011.79 1010.93 1009.72 1009.08 1009.16 1009.19 1009.20 1010.52 1009.21 1009.03 1008.74 1008.82 1009.37 1008.57 1007.54 1005.95 1003.28 1001.13 999.53 998.87 998.02 997.85 997.79 997.63 997.17 996.60 995.24 993.51 991.92 990.73 990.35 989.79
1023.15 1022.56 1021.68 1021.04 1020.43 1019.79 1019.12 1018.54 1017.98 1017.32 1016.64 1016.01 1015.54 1015.12 1014.64 1014.14 1013.89 1013.84 1013.98 1013.56 1013.91 1013.13 1011.93 1009.44 1008.42 1008.01 1007.44 1007.47 1007.82 1007.99 1007.55 1007.90 1007.99 1008.18 1008.58 1008.52 1006.92 1005.45 1002.98 1001.44 1000.32 998.68 997.95 997.83 998.35 998.10 997.52 997.72 997.44 995.87 993.20 992.05 991.15 991.31
1022.75 1022.12 1021.32 1020.63 1020.01 1019.08 1018.51 1017.86 1017.24 1016.44 1015.67 1015.20 1014.56 1014.06 1013.77 1013.38 1013.08 1013.01 1012.75 1012.36 1012.47 1012.80 1011.36 1009.50 1008.21 1006.26 1005.92 1005.73 1005.49 1006.03 1006.83 1007.15 1007.51 1007.99 1008.03 1007.52 1006.16 1004.82 1002.40 1001.39 1000.09 998.95 998.68 998.35 998.54 999.42 1000.05 999.97 998.82 996.36 994.28 993.95 993.38 993.07
1022.28 1021.65 1020.78 1020.17 1019.53 1018.61 1017.83 1017.05 1016.35 1015.41 1014.42 1013.86 1013.41 1012.95 1012.74 1012.53 1012.42 1012.91 1012.27 1011.70 1011.39 1011.68 1011.43 1010.22 1008.13 1006.18 1005.50 1005.17 1005.24 1005.46 1005.22 1005.67 1006.46 1006.44 1006.48 1006.35 1005.24 1004.81 1002.33 1000.41 999.86 999.09 999.21 998.72 998.62 999.27 999.99 999.54 998.75 996.72 995.67 995.20 995.02 995.12
1021.81 1021.15 1020.44 1019.54 1018.92 1017.92 1017.19 1016.29 1015.34 1014.24 1013.43 1012.85 1012.25 1011.92 1011.93 1011.87 1012.00 1012.16 1011.54 1011.10 1011.40 1011.78 1011.69 1010.23 1008.68 1006.56 1005.10 1004.59 1004.39 1004.50 1004.36 1004.45 1004.94 1005.43 1005.52 1005.15 1004.06 1003.35 1001.77 1000.27 1000.34 999.88 1000.04 999.44 998.26 998.94 999.62 999.13 999.24 997.89 996.91 996.62 996.41 996.92
1021.26 1020.58 1019.98 1019.19 1018.17 1017.21 1016.49 1015.52 1014.30 1013.50 1012.46 1011.73 1011.11 1010.83 1010.76 1010.75 1010.82 1010.65 1010.14 1010.16 1010.82 1011.62 1011.71 1010.86 1008.77 1006.95 1005.26 1004.84 1004.26 1003.70 1003.85 1004.04 1004.12 1004.43 1004.22 1004.05 1003.46 1002.38 1001.13 1000.72 1000.30 1000.11 999.75 998.76 998.79 999.42 999.85 1000.00 999.71 998.67 997.85 997.41 997.46 998.24
1020.65 1019.93 1019.23 1018.69 1017.95 1016.52 1015.84 1014.85 1013.66 1012.72 1011.29 1010.40 1009.71 1009.42 1009.88 1010.24 1010.18 1009.54 1009.52 1009.93 1010.37 1011.16 1011.12 1010.67 1009.57 1007.50 1005.69 1005.30 1004.92 1004.53 1004.40 1004.85 1004.28 1004.07 1004.23 1004.26 1003.08 1002.06 1001.29 1000.94 1000.50 999.87 998.99 998.83 999.69 1000.06 1000.12 1000.02 1000.05 999.73 998.57 998.43 998.71 999.09
1020.09 1019.15 1018.41 1017.78 1017.08 1016.22 1015.23 1014.34 1013.34 1012.16 1010.68 1009.60 1009.43 1009.69 1009.67 1009.60 1009.34 1009.95 1010.24 1010.32 1010.56 1010.65 1010.68 1010.06 1009.25 1008.09 1006.71 1005.52 1005.25 1005.05 1004.71 1004.64 1004.28 1004.32 1004.39 1004.29 1003.48 1002.47 1001.77 1001.38 1000.63 1000.05 999.74 999.70 1000.04 1000.36 1000.36 1000.35 1000.20 1000.07 999.83 999.43 999.48 1000.09
1019.65 1018.81 1017.77 1017.11 1016.40 1015.47 1014.55 1013.84 1012.90 1012.02 1010.34 1010.52 1010.48 1010.42 1010.00 1009.62 1009.67 1009.46 1009.46 1009.64 1009.97 1010.11 1009.82 1008.94 1008.22 1007.51 1005.95 1005.49 1004.92 1004.73 1004.49 1004.76 1004.59 1004.59 1004.68 1004.56 1003.71 1002.75 1002.20 1001.63 1001.31 1000.63 1000.34 1000.23 1000.49 1000.83 1000.60 1000.54 1000.65 1000.68 1000.72 1000.18 1000.53 1001.10
1018.96 1018.21 1017.19 1016.47 1015.99 1014.80 1013.97 1013.36 1012.54 1012.32 1011.64 1011.42 1011.53 1010.98 1010.29 1009.72 1009.18 1009.38 1008.73 1008.76 1008.48 1007.86 1007.72 1007.19 1006.56 1006.41 1005.58 1005.01 1004.74 1004.80 1004.73 1004.72 1004.62 1004.82 1004.93 1005.02 1004.53 1003.49 1002.67 1002.14 1001.91 1001.29 1001.18 1001.01 1000.99 1001.10 1001.23 1001.12 1001.05 1001.02 1001.01 1001.15 1001.18 1001.31
1018.31 1017.57 1016.57 1015.82 1015.38 1014.17 1013.30 1012.62 1012.07 1011.72 1011.11 1011.21 1011.19 1010.89 1010.37 1010.21 1009.90 1009.26 1008.33 1007.51 1006.66 1005.82 1005.35 1005.29 1005.19 1005.20 1005.02 1004.86 1004.86 1004.91 1004.57 1005.06 1005.22 1005.47 1005.78 1005.43 1004.80 1003.70 1003.14 1002.69 1001.88 1001.70 1001.68 1001.31 1001.64 1001.82 1001.80 1001.74 1001.65 1001.74 1001.60 1001.53 1001.53 1001.26
1017.57 1016.96 1016.09 1015.15 1014.49 1013.51 1012.80 1012.00 1011.20 1010.87 1010.94 1011.21 1011.03 1010.81 1010.51 1010.10 1009.57 1008.35 1007.46 1006.38 1005.22 1004.54 1004.07 1004.02 1004.13 1004.48 1004.69 1004.83 1004.50 1004.97 1005.75 1005.71 1006.05 1006.05 1005.55 1004.87 1004.55 1003.58 1003.34 1002.65 1002.60 1002.32 1002.31 1001.92 1001.71 1001.68 1001.76 1001.74 1002.03 1002.20 1002.25 1002.17 1001.90 1001.60
1017.03 1016.30 1015.37 1014.45 1013.63 1012.90 1012.01 1011.16 1010.56 1010.64 1010.95 1011.20 1011.26 1011.94 1011.11 1010.55 1009.27 1007.62 1006.37 1005.19 1003.93 1003.23 1003.28 1003.40 1003.92 1004.24 1004.81 1005.11 1005.63 1006.17 1006.76 1007.32 1007.44 1007.04 1006.52 1006.01 1005.19 1004.36 1003.90 1003.29 1002.99 1002.88 1002.89 1002.69 1002.47 1002.26 1002.33 1002.43 1002.56 1002.63 1002.51 1002.47 1002.34 1002.17
1016.62 1015.52 1014.57 1014.09 1013.22 1012.28 1011.29 1010.47 1010.35 1010.73 1010.93 1011.14 1012.24 1012.41 1011.52 1010.47 1009.38 1007.86 1006.48 1005.47 1004.35 1003.21 1002.87 1003.63 1004.76 1005.71 1006.73 1007.16 1007.44 1008.10 1008.38 1008.50 1008.38 1008.03 1007.54 1006.41 1005.67 1005.14 1004.75 1004.21 1003.76 1003.57 1003.45 1003.24 1003.06 1003.25 1003.33 1003.30 1003.48 1003.45 1003.20 1003.06 1002.77 1002.60
1016.35 1015.73 1014.45 1014.05 1013.29 1012.03 1011.07 1010.99 1010.71 1010.88 1011.85 1012.91 1013.33 1012.72 1012.20 1011.57 1010.77 1009.43 1008.12 1007.22 1005.90 1004.46 1004.55 1005.06 1006.78 1008.18 1008.76 1009.01 1009.27 1009.14 1009.25 1009.29 1008.99 1008.52 1007.97 1007.21 1006.75 1006.26 1005.46 1005.05 1004.85 1004.74 1004.67 1004.49 1004.46 1004.58 1004.57 1004.22 1003.98 1004.05 1004.21 1004.19 1003.75 1003.46
1016.35 1015.00 1014.68 1014.42 1014.13 1012.89 1011.91 1011.39 1011.52 1012.20 1013.33 1013.83 1013.86 1013.35 1012.61 1011.96 1011.26 1010.18 1009.28 1008.28 1007.15 1007.11 1007.08 1007.98 1009.21 1009.84 1010.44 1011.01 1011.25 1011.15 1010.68 1010.24 1009.54 1009.34 1008.79 1007.73 1007.06 1006.76 1006.41 1006.11 1005.87 1005.74 1005.81 1006.02 1005.89 1005.80 1005.61 1005.57 1005.71 1005.82 1005.38 1004.94 1004.61 1004.39
1016.06 1015.28 1014.67 1014.47 1014.77 1014.70 1013.82 1012.37 1012.29 1013.50 1014.29 1014.38 1014.22 1013.73 1013.24 1012.72 1012.12 1011.42 1010.62 1009.93 1009.45 1009.18 1009.02 1009.86 1011.26 1012.51 1012.97 1012.72 1012.57 1011.53 1010.84 1010.65 1010.32 1009.83 1009.45 1008.64 1007.97 1007.38 1007.00 1007.13 1007.02 1007.02 1007.15 1007.29 1007.28 1007.21 1007.08 1006.86 1006.84 1006.71 1006.50 1006.26 1006.42 1006.06
1015.24 1014.53 1014.03 1013.97 1014.18 1014.38 1013.97 1013.39 1012.79 1013.78 1014.51 1014.79 1014.53 1014.40 1014.23 1013.99 1013.55 1012.84 1012.32 1011.92 1011.31 1011.06 1011.62 1012.79 1013.70 1014.07 1013.90 1013.56 1013.11 1012.63 1011.97 1011.31 1010.77 1010.37 1009.87 1009.37 1008.86 1008.36 1008.19 1008.18 1008.24 1008.26 1008.46 1008.71 1008.64 1008.39 1008.16 1007.95 1007.71 1007.74 1007.57 1007.61 1007.59 1007.76
1015.03 1014.45 1013.72 1013.80 1014.09 1014.27 1014.14 1013.91 1013.99 1014.14 1014.52 1014.88 1014.72 1014.85 1015.00 1014.67 1014.44 1014.19 1014.07 1013.74 1013.24 1013.81 1014.36 1014.78 1014.94 1014.67 1014.24 1013.80 1013.39 1012.90 1012.48 1012.05 1011.92 1011.66 1011.40 1010.90 1010.60 1010.17 1010.08 1010.08 1009.85 1009.70 1009.79 1009.95 1009.85 1009.66 1009.38 1009.49 1009.21 1008.82 1008.94 1008.78 1008.69 1008.61
1015.25 1014.57 1014.43 1013.81 1014.10 1014.06 1013.98 1013.52 1013.96 1014.06 1014.59 1015.09 1015.10 1015.19 1015.62 1015.67 1015.63 1015.43 1015.32 1015.25 1015.58 1016.02 1015.97 1015.56 1015.36 1015.21 1014.92 1014.72 1014.64 1014.21 1013.78 1013.17 1012.69 1012.32 1011.98 1011.88 1011.90 1011.92 1011.97 1011.99 1011.76 1011.90 1011.87 1011.77 1011.57 1011.44 1011.14 1010.79 1010.27 1010.14 1010.28 1010.20 1009.90 1009.92
1015.39 1015.15 1014.89 1014.40 1014.32 1014.48 1014.09 1013.33 1013.76 1014.10 1015.03 1015.86 1015.53 1015.66 1015.95 1016.02 1015.99 1015.82 1016.82 1017.30 1017.35 1016.85 1016.31 1015.99 1015.66 1015.55 1015.69 1015.61 1015.34 1015.07 1014.76 1014.54 1014.21 1013.93 1013.65 1013.65 1013.80 1013.79 1013.66 1013.56 1013.36 1013.16 1013.07 1012.99 1012.68 1012.50 1012.41 1012.09 1011.76 1011.59 1011.36 1011.10 1011.03 1011.07
1015.42 1015.55 1015.20 1014.82 1014.66 1014.35 1013.67 1013.59 1013.53 1013.96 1014.94 1015.59 1015.96 1016.47 1016.88 1016.79 1016.52 1016.98 1017.94 1018.24 1017.81 1017.12 1016.82 1016.39 1016.11 1016.07 1016.09 1016.23 1016.49 1016.35 1016.09 1015.56 1015.54 1015.20 1014.95 1014.95 1014.96 1015.09 1014.93 1014.84 1014.43 1014.13 1014.10 1013.90 1013.56 1013.49 1013.35 1013.21 1013.00 1012.66 1012.30 1012.10 1011.82 1011.69
1016.58 1015.95 1015.49 1015.12 1014.71 1014.43 1014.06 1013.91 1014.01 1014.25 1014.57 1014.86 1015.77 1016.62 1016.93 1016.93 1017.34 1018.04 1018.59 1018.59 1018.06 1017.54 1017.14 1016.64 1016.56 1016.73 1017.06 1017.23 1017.19 1016.99 1016.52 1016.38 1016.49 1016.58 1016.42 1016.16 1016.18 1016.19 1016.02 1015.78 1015.54 1015.14 1014.79 1014.64 1014.53 1014.46 1014.26 1013.86 1013.59 1013.37 1013.16 1013.00 1012.96 1013.05
1016.39 1015.66 1015.33 1014.90 1014.69 1014.45 1014.25 1014.23 1014.31 1014.38 1014.65 1015.08 1015.70 1016.23 1016.51 1017.09 1018.04 1018.77 1018.89 1018.45 1018.01 1017.49 1017.21 1017.10 1017.10 1017.35 1017.66 1017.60 1018.00 1017.90 1017.80 1017.24 1017.08 1017.34 1017.34 1017.02 1016.75 1016.72 1016.76 1016.58 1016.35 1015.82 1015.14 1015.10 1015.05 1014.94 1014.66 1014.41 1014.32 1014.23 1014.23 1014.20 1014.15 1014.10
1016.43 1016.05 1015.47 1014.75 1014.49 1014.27 1014.23 1014.19 1014.14 1014.52 1014.84 1015.19 1015.52 1015.84 1016.27 1017.33 1018.18 1018.56 1018.12 1017.64 1017.52 1017.01 1016.63 1016.60 1016.98 1017.26 1017.69 1018.09 1018.25 1018.24 1018.05 1017.62 1017.74 1017.93 1017.77 1017.51 1017.32 1017.23 1017.18 1017.04 1016.75 1016.55 1015.77 1015.49 1015.51 1015.32 1015.24 1015.19 1015.11 1015.00 1014.99 1014.94 1014.85 1014.75
1016.05 1015.96 1015.68 1014.98 1014.54 1014.09 1014.36 1014.52 1014.84 1015.26 1015.45 1015.40 1015.67 1016.48 1016.99 1017.41 1017.95 1017.86 1017.41 1016.68 1016.43 1016.82 1017.07 1016.92 1017.15 1017.30 1017.62 1018.04 1018.46 1018.61 1018.56 1018.34 1018.18 1018.18 1018.09 1017.92 1017.67 1017.55 1017.30 1017.03 1016.79 1016.51 1016.34 1016.11 1015.89 1015.70 1015.70 1015.66 1015.59 1015.55 1015.57 1015.62 1015.50 1015.30
1015.60 1015.40 1015.39 1014.92 1014.26 1014.14 1014.29 1014.58 1015.14 1015.43 1015.55 1015.59 1016.29 1016.92 1017.27 1017.28 1017.19 1017.11 1016.87 1016.52 1016.24 1016.59 1017.30 1017.54 1017.62 1017.60 1017.98 1018.33 1018.65 1018.86 1019.00 1019.00 1019.13 1019.15 1019.15 1019.18 1019.02 1018.76 1018.09 1017.80 1017.56 1017.24 1016.96 1016.70 1016.38 1016.29 1016.15 1016.17 1016.13 1016.01 1015.90 1015.83 1015.72 1015.48
1014.39 1014.60 1014.77 1014.15 1013.93 1014.14 1014.19 1014.22 1014.84 1015.30 1015.41 1015.64 1016.15 1016.75 1017.01 1017.04 1016.87 1016.57 1016.69 1016.69 1016.95 1017.14 1017.24 1017.51 1017.72 1017.93 1018.37 1018.73 1019.24 1019.53 1019.47 1019.39 1019.46 1019.55 1019.62 1019.63 1019.60 1019.16 1018.70 1018.44 1018.15 1017.80 1017.42 1017.17 1016.94 1016.71 1016.43 1016.35 1016.28 1016.19 1016.15 1016.10 1016.03 1015.80
1012.74 1013.27 1013.47 1013.29 1013.47 1013.39 1013.54 1013.81 1014.22 1014.75 1015.37 1015.83 1016.09 1016.61 1017.00 1017.00 1016.86 1016.61 1016.72 1016.80 1017.00 1017.11 1017.43 1017.99 1018.12 1018.14 1018.51 1018.77 1019.02 1019.47 1019.76 1019.76 1019.54 1019.42 1019.40 1019.42 1019.32 1019.19 1019.03 1018.77 1018.46 1018.16 1017.80 1017.50 1017.24 1017.19 1016.98 1016.86 1016.79 1016.70 1016.58 1016.44 1016.23 1016.02
1011.74 1012.01 1012.37 1012.55 1012.97 1012.88 1013.17 1013.65 1014.15 1014.52 1015.08 1015.62 1016.04 1016.31 1016.76 1017.12 1017.23 1017.06 1016.79 1016.84 1017.26 1017.68 1017.76 1018.00 1018.37 1018.78 1018.69 1018.60 1018.59 1018.63 1018.73 1019.30 1019.48 1019.50 1019.46 1019.43 1019.37 1019.25 1019.12 1018.97 1018.76 1018.49 1018.22 1017.92 1017.68 1017.61 1017.44 1017.29 1017.16 1017.03 1016.91 1016.71 1016.50 1016.27
1010.42 1010.63 1010.78 1011.47 1012.15 1012.63 1012.76 1013.24 1013.57 1014.11 1014.56 1014.96 1015.35 1015.84 1016.23 1016.55 1016.90 1017.07 1017.07 1016.87 1017.26 1017.58 1017.81 1018.07 1018.32 1018.45 1018.59 1018.70 1018.75 1018.79 1018.89 1019.06 1019.25 1019.19 1019.31 1019.29 1019.29 1019.30 1019.27 1019.19 1019.04 1018.85 1018.67 1018.34 1018.12 1017.97 1017.83 1017.60 1017.45 1017.26 1017.07 1016.87 1016.66 1016.37
Wind_Speed
16 16 16 16 17 17 17 18 18 18 18 18 18 17 16 14 13 2 4 4 4 5 10 16 16 14 10 7 7 6 6 1 3 4 4 3 4 6 5 5 2 6 5 3 5 7 5 29 21 6 7 4 4 4
16 15 16 17 17 17 18 17 17 17 18 18 17 17 16 14 12 9 3 2 2 5 7 7 14 16 18 19 3 3 5 3 3 1 5 3 4 4 5 5 4 7 7 5 5 4 6 14 11 17 9 4 3 6
15 16 17 17 16 17 17 18 18 18 18 18 17 17 16 14 14 9 3 3 2 4 7 5 10 14 14 19 18 7 4 7 5 5 0 2 7 0 6 4 1 6 6 5 2 4 15 17 23 18 9 7 9 5
17 17 18 18 17 17 17 17 18 18 19 19 20 19 18 16 13 11 3 3 2 4 5 8 5 9 9 14 14 23 17 5 2 3 3 4 5 6 5 4 3 3 1 6 0 9 16 10 19 16 9 10 15 14
19 19 20 20 19 20 20 20 21 22 22 21 21 21 18 17 15 7 6 5 7 5 4 9 16 10 7 5 9 17 17 14 6 2 3 3 4 6 5 4 4 1 2 3 5 4 3 6 15 14 19 18 17 13
20 20 22 21 21 22 23 23 23 24 24 23 21 20 18 15 9 2 4 1 2 1 4 4 5 7 5 8 4 6 6 6 4 4 2 4 5 5 5 3 1 5 5 0 5 6 1 8 9 15 20 19 21 20
20 20 21 23 23 24 24 25 25 25 25 24 22 19 16 11 3 4 5 2 5 2 2 5 5 5 6 4 2 3 6 4 4 4 4 4 5 5 4 2 1 2 5 5 4 3 2 10 2 10 17 18 21 17
20 21 21 23 25 26 26 26 26 26 27 24 23 18 12 10 6 6 7 14 5 3 2 4 6 5 3 3 2 2 3 2 3 4 2 2 4 3 3 4 4 3 7 4 8 3 3 2 4 10 14 17 21 17
22 23 23 23 24 29 27 27 28 27 30 27 20 8 2 3 3 3 10 10 3 2 2 3 3 4 6 2 4 4 3 2 4 2 1 1 3 2 6 6 5 7 3 12 10 6 6 7 7 9 12 15 15 14
23 25 25 25 25 26 27 27 26 26 30 23 1 1 2 1 11 11 1 1 1 1 1 3 2 4 3 1 1 2 2 3 1 2 2 2 3 4 10 7 7 9 13 6 8 6 7 8 8 8 9 9 9 7
23 24 27 26 27 28 28 26 23 23 10 5 5 3 3 6 2 2 1 2 1 2 3 4 5 3 2 2 2 2 2 2 1 1 1 4 5 8 14 9 8 11 11 12 12 9 11 9 6 6 6 7 6 5
23 24 26 26 26 29 28 23 19 6 3 2 5 4 3 2 2 4 4 2 3 3 5 4 4 5 3 1 2 3 1 2 3 2 2 4 3 11 11 10 8 10 10 10 11 11 9 10 9 8 5 5 4 3
23 23 26 26 26 28 26 21 18 13 10 1 1 2 1 3 6 6 6 5 4 3 4 5 3 2 1 2 1 2 3 4 3 4 4 3 8 8 6 7 6 2 4 6 4 6 6 4 8 8 5 6 4 5
22 23 24 26 27 24 21 21 19 8 1 2 4 9 5 5 4 4 8 6 6 5 5 4 2 1 2 1 2 5 5 3 4 5 5 7 9 6 3 3 4 4 5 12 12 9 7 7 5 7 5 5 5 6
22 23 24 21 17 21 24 23 16 2 2 3 5 6 5 5 7 11 7 7 10 3 2 1 3 3 4 5 5 4 5 5 5 4 3 8 10 8 10 8 11 10 9 10 10 9 7 7 7 7 7 6 5 6
21 20 5 14 23 27 28 10 1 2 2 3 7 6 8 8 14 16 14 15 15 11 2 5 5 6 9 5 7 8 4 6 4 4 6 9 11 10 10 10 10 11 10 13 15 12 11 8 7 5 6 7 7 8
15 5 10 21 26 28 11 3 3 4 6 6 5 5 4 3 5 9 12 9 9 11 13 5 9 9 4 6 8 7 5 6 4 5 5 7 7 6 7 8 10 9 10 13 15 17 14 15 16 14 12 9 7 8
4 6 18 21 17 8 5 2 4 5 6 4 4 6 5 2 9 11 11 13 7 8 6 7 4 8 6 5 6 5 4 4 4 4 6 8 7 7 7 9 9 9 9 10 12 13 14 15 12 8 11 9 10 9
10 14 23 21 5 3 4 6 5 5 3 2 4 5 7 4 9 10 11 10 10 6 5 5 8 5 5 4 6 6 4 3 2 3 2 6 8 8 10 11 11 13 13 10 10 6 6 7 7 6 8 8 9 9
18 17 15 9 5 2 5 5 3 4 2 2 4 5 6 6 6 10 10 10 7 5 10 8 7 3 3 5 2 2 4 5 4 6 8 9 7 7 7 8 8 10 9 8 8 10 9 10 9 7 6 8 9 8
8 6 8 3 1 1 1 1 4 2 1 2 2 2 2 2 7 9 10 8 9 9 7 3 2 3 3 7 9 10 11 10 9 7 4 7 9 12 11 10 12 11 10 9 8 9 11 9 7 9 9 7 6 6
4 9 3 2 1 5 1 2 4 2 3 2 2 2 3 3 3 4 3 7 6 4 3 4 5 4 9 11 7 9 9 13 11 11 13 9 11 11 11 9 9 9 9 8 8 9 9 8 8 9 10 6 8 6
8 1 2 1 1 4 6 3 2 0 5 2 5 3 3 2 2 3 5 4 3 4 4 3 4 4 6 6 8 9 10 13 10 11 9 8 8 8 8 9 9 9 9 9 7 7 8 10 11 9 8 8 7 5
3 2 3 2 2 4 3 2 1 2 4 2 2 3 2 3 4 3 3 3 4 4 5 7 5 5 5 7 7 6 5 7 9 10 9 6 6 6 7 7 8 8 5 4 7 6 7 7 8 8 9 10 10 10
3 2 4 5 2 3 4 5 4 4 2 1 4 1 2 2 3 4 2 4 4 4 5 5 6 5 4 3 4 6 8 7 7 6 7 6 4 4 5 5 5 6 5 6 7 6 5 7 8 8 10 10 11 12
4 2 4 4 3 2 3 5 4 3 3 2 3 3 3 3 4 2 3 3 3 3 4 4 3 4 5 4 4 4 4 4 8 6 5 6 7 5 5 6 6 8 6 4 4 5 6 6 8 10 10 11 13 9
2 3 4 3 1 1 3 3 2 3 2 2 1 2 3 3 1 3 3 4 3 1 4 0 4 5 4 4 4 3 3 6 6 1 1 4 5 4 3 3 5 4 5 7 5 5 6 6 6 6 5 5 7 6
1 2 1 4 3 1 2 3 4 5 3 4 4 5 3 2 2 3 5 4 3 5 3 5 5 5 5 5 4 3 4 5 7 6 5 5 5 6 8 6 7 13 7 6 6 7 6 6 6 6 6 5 5 5
2 3 1 4 2 2 1 2 2 0 2 2 3 2 2 1 2 2 4 4 4 6 5 4 3 4 5 6 5 4 4 4 7 8 8 5 5 5 5 5 5 5 5 6 7 7 7 5 5 4 4 3 3 4
4 5 3 4 4 3 3 4 4 3 1 3 4 2 3 1 2 1 3 3 4 3 3 4 3 5 4 6 5 5 3 4 4 4 3 3 3 4 5 5 5 6 5 6 4 5 8 5 6 5 5 5 4 4
6 4 4 3 3 3 5 4 4 4 4 3 2 4 4 2 3 2 2 1 4 4 5 5 4 4 5 4 4 5 2 0 4 5 4 2 3 4 5 4 5 5 5 6 4 4 4 4 4 4 6 6 7 6
4 7 5 3 2 3 4 4 5 4 4 3 3 3 2 2 2 2 3 4 5 5 4 6 5 4 4 3 3 2 7 5 5 3 3 1 1 3 4 4 5 5 6 6 6 5 6 6 5 5 5 7 7 7
0 1 1 4 3 3 4 4 5 3 2 3 3 4 4 4 2 2 2 4 5 4 5 5 5 5 6 5 4 3 5 5 8 7 5 4 4 3 3 3 4 5 8 5 5 6 7 6 5 6 6 7 7 7
Wind_Direction
323 327 333 334 330 328 327 329 328 329 332 333 333 332 329 328 325 11 256 205 201 257 262 252 246 261 269 259 261 299 334 330 330 251 237 224 215 250 278 271 92 117 131 180 279 265 261 353 326 135 208 108 142 110
323 328 327 324 324 322 323 324 323 323 324 324 325 325 324 321 315 319 251 255 205 238 266 263 256 247 232 237 227 215 244 289 213 286 324 315 299 279 263 255 181 176 176 187 164 231 338 350 321 312 346 95 117 106
327 326 320 320 318 321 321 317 315 315 314 315 316 314 314 312 309 305 245 247 260 254 267 259 246 255 235 229 218 232 242 212 213 167 277 277 267 107 258 228 281 210 210 132 47 34 1 341 340 345 321 65 26 31
321 319 315 313 315 314 311 309 308 306 305 308 311 306 304 303 292 295 230 221 236 264 267 270 311 273 261 262 215 204 229 204 202 138 157 230 252 200 276 285 265 214 337 131 305 4 351 9 333 327 6 24 75 44
316 314 310 308 309 307 307 306 304 301 300 300 301 305 301 296 296 279 250 238 216 220 267 294 304 266 258 239 225 204 211 225 226 139 176 249 259 288 253 218 249 332 184 151 142 82 306 283 314 356 48 34 26 38
317 315 311 309 309 307 306 307 306 303 299 297 296 294 294 292 297 9 310 335 54 140 315 291 286 288 296 254 251 200 204 201 166 171 190 223 213 226 272 203 304 342 334 340 111 111 208 252 336 22 44 44 42 32
316 316 314 312 313 310 310 311 311 305 302 302 300 295 291 279 200 180 212 180 144 76 280 290 285 271 267 253 210 172 196 199 166 196 200 246 251 217 265 17 271 239 288 262 122 119 16 34 1 32 44 47 48 37
314 314 314 314 314 312 316 316 311 309 307 306 304 299 277 251 240 242 239 250 225 165 227 276 279 306 5 318 16 329 129 133 221 211 248 277 307 237 269 332 344 289 267 178 94 125 124 247 359 56 61 48 45 37
312 312 312 313 313 312 318 318 315 317 315 314 310 296 116 169 213 243 136 119 77 135 214 228 275 298 345 35 343 2 59 7 310 261 186 285 297 299 314 17 352 321 254 117 107 119 113 85 68 20 65 61 68 39
310 311 312 314 315 314 316 318 317 319 315 318 43 25 313 244 122 113 218 111 91 184 154 229 242 265 302 86 257 329 165 206 273 5 40 340 277 281 16 22 5 25 45 89 98 71 86 72 68 52 39 50 63 65
307 307 308 312 314 315 316 319 320 327 323 12 354 338 277 158 242 207 255 221 131 271 209 234 226 247 221 264 240 226 18 28 24 104 51 352 329 342 356 41 41 44 54 61 72 60 59 57 69 81 81 62 57 50
305 306 306 308 312 312 313 315 320 335 271 311 293 294 281 296 326 341 294 309 230 262 188 216 223 202 262 234 12 37 348 245 33 15 40 14 294 327 346 15 22 24 15 31 37 40 54 59 42 35 46 68 22 335
304 305 305 308 311 308 308 312 312 293 289 148 295 275 19 349 18 332 333 295 259 245 203 205 192 185 194 71 126 247 27 33 11 34 11 272 300 297 329 336 342 324 297 291 259 260 202 160 113 89 56 59 51 24
303 306 306 308 307 299 309 316 317 321 50 21 341 335 41 338 330 273 298 283 277 251 268 266 109 154 168 131 352 43 32 8 30 22 17 15 359 345 357 317 355 61 95 98 124 121 95 79 70 87 63 74 38 24
306 307 305 299 301 318 323 322 314 155 78 1 45 358 328 308 322 330 332 337 351 261 279 354 82 66 19 47 23 28 36 33 7 355 359 343 341 6 47 53 57 61 67 71 58 36 38 54 55 47 35 46 61 55
312 312 260 330 337 328 322 322 64 87 328 50 36 346 320 347 1 4 354 5 357 353 47 44 43 52 33 28 14 26 31 32 0 357 351 340 351 29 53 40 40 45 41 47 43 48 42 41 57 54 39 31 37 40
317 240 301 335 333 321 317 351 359 25 44 35 341 325 331 325 332 1 13 358 334 19 24 31 41 38 3 17 19 354 43 40 4 354 338 331 331 342 28 40 52 46 44 55 53 53 46 36 39 36 19 4 36 45
250 282 320 322 339 320 311 352 38 65 45 348 22 337 335 333 16 18 18 17 14 5 19 52 51 26 32 30 42 9 11 333 339 11 345 335 350 15 35 43 46 50 54 52 53 48 45 40 36 28 25 14 31 34
277 292 298 303 315 330 349 335 65 82 42 346 343 353 24 2 18 19 21 15 29 23 27 42 57 32 12 2 26 337 332 353 318 303 290 304 330 2 38 49 50 55 62 52 48 41 40 41 32 25 26 31 41 21
296 282 282 296 154 29 359 344 47 75 59 266 7 357 34 24 14 29 27 22 9 24 43 46 52 3 22 357 317 315 328 324 8 9 355 7 347 358 43 54 45 50 56 44 39 33 36 33 20 12 24 56 64 38
318 304 331 124 94 114 181 22 14 162 123 79 275 57 29 5 32 29 31 12 37 42 38 42 54 360 359 45 33 25 21 16 24 23 330 25 30 49 45 43 45 43 39 26 23 17 30 29 15 24 23 26 35 50
275 352 338 302 338 351 27 261 156 241 84 208 7 78 31 25 6 348 0 27 40 2 348 14 8 22 43 37 20 23 21 23 16 17 18 36 44 45 40 34 36 38 34 26 26 30 24 12 23 34 33 30 39 35
300 6 283 295 345 39 261 40 46 182 101 280 334 35 11 20 300 27 56 10 350 321 334 340 338 45 73 32 31 22 31 31 19 15 19 56 53 50 46 39 35 37 36 24 20 24 32 18 22 30 26 24 27 25
12 326 340 315 141 265 344 314 285 39 119 133 73 84 318 330 334 71 96 348 301 325 348 341 2 356 31 47 49 33 15 41 30 20 24 35 48 42 42 36 32 28 25 13 24 29 30 30 20 20 22 27 29 39
45 314 93 320 286 346 359 350 0 23 339 33 111 105 280 32 38 47 17 299 310 313 331 344 357 27 82 62 34 26 14 40 41 35 19 30 37 41 26 17 25 19 14 30 16 31 25 20 17 16 30 37 34 42
57 318 71 358 318 37 329 9 358 343 25 59 80 153 137 85 56 354 284 264 285 314 338 344 6 43 42 76 83 48 0 19 49 33 356 27 29 35 31 32 19 1 353 22 41 35 25 18 18 32 47 37 34 47
47 334 313 285 179 263 14 352 357 32 25 38 279 145 108 85 74 258 271 254 227 260 251 117 80 83 96 88 70 51 38 48 64 40 352 27 32 23 52 50 15 295 339 2 26 31 40 34 39 43 43 32 30 25
126 172 249 323 326 142 83 36 10 23 2 315 58 34 57 59 210 237 224 261 229 99 56 75 85 96 94 92 105 83 46 37 41 25 14 9 12 15 5 3 16 16 11 21 37 29 31 35 37 39 49 41 13 6
214 215 123 291 27 47 68 124 107 41 282 30 89 104 142 219 217 258 292 308 19 92 112 103 46 79 79 92 80 70 66 61 59 44 27 4 2 337 346 360 357 356 356 353 17 26 50 57 51 49 43 38 2 355
226 148 208 249 162 159 221 136 143 162 67 129 126 73 47 347 266 325 352 22 89 89 143 138 125 96 103 113 112 78 53 90 88 104 65 9 309 320 352 358 355 343 344 347 23 9 9 22 10 12 19 18 2 354
138 161 234 196 172 182 165 156 133 123 140 154 128 129 168 188 326 303 327 73 104 73 73 100 74 81 94 80 121 139 137 326 117 83 74 51 19 8 353 347 346 342 337 334 10 28 29 19 17 16 13 15 6 14
193 203 188 154 170 191 118 155 173 171 156 131 178 130 92 86 216 284 306 83 83 66 66 110 98 91 103 76 46 109 136 147 141 125 103 86 345 349 356 352 355 348 345 3 14 18 25 26 26 26 14 11 11 4
248 301 102 97 99 176 208 138 185 134 108 158 152 167 173 170 161 227 16 61 119 116 105 128 125 116 108 91 62 132 146 148 154 171 191 222 237 279 320 352 2 355 349 355 9 11 3 355 7 21 12 8 357 346